GW4243 Weather Reports


time (UTC)temp
C
wind
direction
speed
KPH
gust
KPH
rain 1hr
cm
rain 24hr
cm
rain mn
cm
humidity
%
barometer
mb
20260506185026 10 0 0.0 0.0 0.00 0.74 0.74 97 1010.4
20260506184545 10 0 0.0 0.0 0.00 0.74 0.74 97 1010.4
20260506184026 10 0 0.0 0.0 0.00 0.74 0.74 97 1010.3
20260506183526 10 0 0.0 0.0 0.00 0.74 0.74 97 1010.2
20260506183038 10 0 0.0 0.0 0.00 0.74 0.74 97 1010.3
20260506182525 10 0 0.0 0.0 0.00 0.74 0.74 97 1010.2
20260506182027 10 0 0.0 0.0 0.00 0.74 0.74 97 1010.2
20260506181538 10 0 0.0 0.0 0.00 0.74 0.74 97 1010.2
20260506181027 10 0 0.0 0.0 0.00 0.74 0.74 97 1010.2
20260506180526 10 0 0.0 0.0 0.00 0.74 0.74 97 1010.1
20260506180038 10 0 0.0 0.0 0.00 0.74 0.74 97 1010.1
20260506175526 10 0 0.0 0.0 0.00 0.74 0.74 97 1010.0
20260506175025 10 0 0.0 0.0 0.00 0.74 0.74 97 1010.1
20260506174537 10 0 0.0 0.0 0.00 0.74 0.74 97 1010.0
20260506174028 10 0 0.0 0.0 0.00 0.74 0.74 97 1010.0
20260506173525 10 0 0.0 0.0 0.00 0.74 0.71 97 1009.9
20260506173055 10 0 0.0 0.0 0.00 0.74 0.71 97 1009.7
20260506172525 10 0 0.0 0.0 0.00 0.74 0.71 97 1009.7
20260506172026 10 0 0.0 0.0 0.00 0.74 0.71 97 1009.7
20260506171537 10 0 0.0 0.0 0.00 0.74 0.71 97 1009.6
20260506171029 10 0 0.0 0.0 0.00 0.74 0.71 97 1009.6
20260506170525 10 0 0.0 0.0 0.00 0.74 0.71 97 1009.6
20260506170042 10 0 0.0 0.0 0.00 0.74 0.71 97 1009.5
20260506165526 10 0 0.0 0.0 0.00 0.74 0.71 97 1009.5
20260506165026 10 0 0.0 0.0 0.00 0.74 0.71 97 1009.5
20260506164541 10 0 0.0 0.0 0.00 0.74 0.71 97 1009.4
20260506164027 10 0 0.0 0.0 0.00 0.74 0.71 97 1009.4
20260506163532 10 0 0.0 0.0 0.00 0.74 0.71 97 1009.4
20260506163040 10 0 0.0 0.0 0.00 0.74 0.71 97 1009.3
20260506162526 10 0 0.0 0.0 0.00 0.71 0.69 97 1009.3
20260506162028 10 0 0.0 0.0 0.00 0.71 0.69 97 1009.3
20260506161538 10 0 0.0 0.0 0.00 0.71 0.69 97 1009.3
20260506161025 10 0 0.0 0.0 0.00 0.71 0.69 97 1009.4
20260506160525 10 0 0.0 0.0 0.00 0.71 0.69 97 1009.4
20260506160038 10 0 0.0 0.0 0.00 0.71 0.69 97 1009.4
20260506155525 10 0 0.0 0.0 0.00 0.74 0.69 97 1009.4
20260506155026 10 0 0.0 0.0 0.00 0.74 0.69 97 1009.4
20260506154549 10 0 0.0 0.0 0.00 0.74 0.69 97 1009.4
20260506154026 10 0 0.0 0.0 0.00 0.74 0.69 97 1009.4
20260506153528 10 0 0.0 0.0 0.00 0.74 0.69 97 1009.3
20260506153045 10 0 0.0 0.0 0.00 0.74 0.69 97 1009.3
20260506152528 10 0 0.0 0.0 0.00 0.74 0.69 97 1009.3
20260506152026 10 0 0.0 0.0 0.00 0.74 0.69 97 1009.3
20260506151539 10 0 0.0 0.0 0.00 0.74 0.69 97 1009.2
20260506151030 10 0 0.0 0.0 0.00 0.74 0.69 96 1009.2
20260506150528 10 0 0.0 1.6 0.00 0.74 0.69 96 1009.2
20260506150042 10 0 0.0 1.6 0.00 0.74 0.69 96 1009.2
20260506145526 10 0 0.0 0.0 0.00 0.74 0.69 96 1009.3
20260506145025 10 0 0.0 0.0 0.00 0.74 0.69 96 1009.2
20260506144542 10 0 0.0 0.0 0.03 0.74 0.69 96 1009.2
20260506144025 10 0 0.0 0.0 0.05 0.74 0.69 96 1009.2
20260506143527 10 0 0.0 0.0 0.08 0.74 0.69 96 1009.1
20260506143040 10 0 0.0 0.0 0.10 0.74 0.69 96 1009.3
20260506142526 10 0 0.0 0.0 0.10 0.74 0.69 96 1009.3
20260506142026 10 0 0.0 0.0 0.10 0.74 0.66 96 1009.4
20260506141538 10 0 0.0 0.0 0.15 0.74 0.66 96 1009.4
20260506141029 10 0 0.0 0.0 0.18 0.74 0.66 96 1009.3
20260506140526 10 0 0.0 0.0 0.18 0.74 0.66 96 1009.4
20260506140041 10 0 0.0 0.0 0.20 0.74 0.66 95 1009.4
20260506135526 10 0 0.0 0.0 0.23 0.74 0.66 95 1009.3
20260506135025 10 0 0.0 0.0 0.25 0.74 0.66 95 1009.3
20260506134539 9 0 0.0 1.6 0.25 0.71 0.64 95 1009.3
20260506134025 10 0 0.0 1.6 0.28 0.69 0.64 95 1009.3
20260506133527 10 0 0.0 0.0 0.28 0.66 0.61 95 1009.4
20260506133044 10 0 0.0 0.0 0.25 0.64 0.56 95 1009.4
20260506132528 10 0 0.0 8.0 0.28 0.64 0.56 95 1009.2
20260506132029 10 0 0.0 8.0 0.28 0.61 0.56 95 1009.0
20260506131548 10 0 0.0 0.0 0.25 0.56 0.51 95 1009.2
20260506131026 10 0 0.0 3.2 0.25 0.56 0.48 95 1009.0
20260506130526 10 0 0.0 3.2 0.20 0.51 0.46 95 1009.0
20260506130059 10 0 0.0 1.6 0.20 0.51 0.46 95 1008.9
20260506125530 10 0 0.0 4.8 0.20 0.51 0.43 95 1008.9
20260506125029 10 0 0.0 4.8 0.18 0.48 0.41 95 1008.9
20260506124545 11 0 0.0 3.2 0.18 0.46 0.38 95 1008.9
20260506124026 11 0 0.0 3.2 0.13 0.43 0.36 95 1008.8
20260506123526 11 0 0.0 3.2 0.13 0.41 0.33 95 1008.6
20260506123043 11 0 0.0 17.7 0.10 0.38 0.30 95 1008.5
20260506122526 11 0 3.2 17.7 0.08 0.36 0.28 95 1008.3
20260506122026 11 208 3.2 17.7 0.08 0.36 0.28 95 1008.2
20260506121539 11 288 8.0 17.7 0.05 0.33 0.25 95 1008.1
20260506121028 11 0 0.0 0.0 0.05 0.30 0.23 96 1007.9
20260506120529 11 0 0.0 0.0 0.05 0.30 0.23 96 1007.9
20260506120040 11 0 0.0 0.0 0.08 0.30 0.23 96 1007.7
20260506115526 11 0 0.0 0.0 0.08 0.28 0.20 96 1007.7
20260506115025 11 0 0.0 0.0 0.10 0.28 0.20 96 1007.6
20260506114541 11 0 0.0 0.0 0.10 0.28 0.20 96 1007.5
20260506114027 11 0 0.0 0.0 0.10 0.28 0.20 96 1007.5
20260506113526 11 0 0.0 0.0 0.08 0.28 0.18 96 1007.5
20260506113046 11 0 0.0 0.0 0.08 0.28 0.18 96 1007.4
20260506112525 11 0 0.0 0.0 0.10 0.28 0.18 96 1007.4
20260506112025 11 0 0.0 0.0 0.10 0.28 0.18 96 1007.4
20260506111540 11 0 0.0 0.0 0.10 0.28 0.18 96 1007.4
20260506111025 11 0 0.0 0.0 0.10 0.25 0.18 96 1007.5
20260506110528 11 0 0.0 0.0 0.13 0.25 0.18 96 1007.5
20260506110043 11 0 0.0 0.0 0.10 0.23 0.15 95 1007.6
20260506105526 11 0 0.0 0.0 0.10 0.20 0.13 95 1007.6
20260506105028 11 0 0.0 0.0 0.08 0.18 0.08 95 1007.6
20260506104547 11 0 0.0 0.0 0.08 0.18 0.08 94 1007.5
20260506104025 11 0 0.0 0.0 0.08 0.18 0.08 95 1007.5
20260506103525 11 0 0.0 0.0 0.08 0.18 0.08 94 1007.5
20260506103047 11 0 0.0 0.0 0.08 0.18 0.08 94 1007.5
20260506102525 11 0 0.0 0.0 0.08 0.15 0.08 94 1007.5
20260506102026 12 0 0.0 0.0 0.08 0.15 0.08 94 1007.5
20260506101551 12 0 0.0 0.0 0.08 0.15 0.08 93 1007.5
20260506101026 12 0 0.0 0.0 0.05 0.13 0.05 94 1007.5
20260506100526 11 0 0.0 0.0 0.03 0.10 0.03 93 1007.5
20260506100058 11 0 0.0 0.0 0.00 0.08 0.00 93 1007.5
20260506095526 11 0 0.0 0.0 0.00 0.08 0.00 93 1007.4
20260506095028 11 0 0.0 0.0 0.00 0.08 0.00 92 1007.4
20260506094540 11 0 0.0 0.0 0.00 0.08 0.00 93 1007.3
20260506094027 11 0 0.0 0.0 0.00 0.08 0.00 93 1007.1
20260506093526 12 0 0.0 0.0 0.00 0.08 0.00 93 1007.2
20260506093043 12 0 0.0 0.0 0.00 0.08 0.00 92 1007.2
20260506092525 12 0 0.0 0.0 0.00 0.08 0.00 92 1007.2
20260506092027 11 0 0.0 0.0 0.00 0.08 0.00 92 1007.1
20260506091539 11 0 0.0 0.0 0.00 0.08 0.00 92 1007.1
20260506091028 11 0 0.0 0.0 0.00 0.08 0.00 92 1007.1
20260506090525 11 0 0.0 0.0 0.00 0.08 0.00 92 1007.0
20260506090038 11 0 0.0 0.0 0.00 0.08 0.00 92 1007.0
20260506085529 11 0 0.0 0.0 0.00 0.08 0.00 91 1007.1
20260506085026 11 0 0.0 0.0 0.00 0.08 0.00 91 1007.2
20260506084604 11 0 0.0 0.0 0.00 0.08 0.00 91 1007.1
20260506084026 11 0 0.0 0.0 0.00 0.08 0.00 91 1007.2
20260506083527 11 0 0.0 0.0 0.00 0.08 0.00 91 1007.1
20260506083041 11 0 0.0 0.0 0.00 0.08 0.00 92 1007.1
20260506082528 11 0 0.0 0.0 0.00 0.08 0.00 92 1007.1
20260506082028 11 0 0.0 0.0 0.00 0.08 0.00 92 1007.1
20260506081545 11 0 0.0 0.0 0.00 0.08 0.00 91 1007.0
20260506081027 11 0 0.0 0.0 0.00 0.08 0.00 91 1006.9
20260506080527 11 0 0.0 0.0 0.00 0.08 0.00 91 1006.8
20260506073527 10 0 0.0 0.0 0.00 0.15 0.00 94 1007.0
20260506073044 10 0 0.0 0.0 0.00 0.15 0.00 93 1007.0
20260506072526 10 0 0.0 0.0 0.00 0.15 0.00 93 1007.0
20260506072025 10 0 0.0 0.0 0.00 0.15 0.00 94 1007.0
20260506071541 10 0 0.0 0.0 0.00 0.15 0.00 93 1007.0
20260506071025 10 0 0.0 0.0 0.00 0.15 0.00 94 1007.1
20260506070528 10 0 0.0 0.0 0.00 0.15 0.00 94 1007.0
20260506062025 8 0 0.0 0.0 0.00 0.15 0.00 95 1007.1
20260506061537 8 0 0.0 0.0 0.00 0.15 0.00 96 1007.1
20260506061028 8 0 0.0 0.0 0.00 0.15 0.00 95 1006.9
20260506060525 8 0 0.0 0.0 0.00 0.15 0.00 95 1007.0
20260506051026 7 0 0.0 0.0 0.00 0.18 0.00 95 1007.2
20260506050525 7 0 0.0 0.0 0.00 0.18 0.00 95 1007.1
20260506045025 7 0 0.0 0.0 0.00 0.18 0.00 95 1007.2
20260506044625 7 0 0.0 0.0 0.00 0.18 0.00 95 1007.1
20260506044026 7 0 0.0 0.0 0.00 0.18 0.00 95 1007.1
20260506043525 7 0 0.0 0.0 0.00 0.18 0.00 95 1007.1
20260506043038 7 0 0.0 0.0 0.00 0.18 0.00 95 1007.0
20260506042525 7 0 0.0 0.0 0.00 0.18 0.00 95 1007.0
20260506042025 7 0 0.0 0.0 0.00 0.18 0.00 95 1007.1
20260506041551 7 0 0.0 0.0 0.00 0.18 0.00 95 1007.2
20260506041030 7 0 0.0 0.0 0.00 0.18 0.00 95 1007.2
20260506040528 7 0 0.0 0.0 0.00 0.18 0.00 95 1007.2
20260506040039 7 0 0.0 0.0 0.00 0.18 0.00 95 1007.3
20260506035528 7 0 0.0 0.0 0.00 0.18 0.00 95 1007.4
20260506035026 7 0 0.0 0.0 0.00 0.18 0.00 95 1007.4
20260506034602 7 0 0.0 0.0 0.00 0.18 0.00 95 1007.4
20260506034026 7 0 0.0 0.0 0.00 0.18 0.00 95 1007.4
20260506033525 8 0 0.0 0.0 0.00 0.18 0.00 95 1007.5
20260506033038 8 0 0.0 0.0 0.00 0.18 0.00 95 1007.5
20260506032525 8 0 0.0 0.0 0.00 0.18 0.00 95 1007.6
20260506032025 8 0 0.0 0.0 0.00 0.18 0.00 95 1007.6
20260506031540 8 0 0.0 0.0 0.00 0.18 0.00 95 1007.8
20260506031025 8 0 0.0 0.0 0.00 0.18 0.00 95 1007.6
20260506030525 8 0 0.0 0.0 0.00 0.18 0.00 95 1007.6
20260506030038 8 0 0.0 0.0 0.00 0.18 0.00 95 1007.7
20260506025526 8 0 0.0 0.0 0.00 0.18 0.00 95 1007.7
20260506025026 8 0 0.0 0.0 0.00 0.18 0.00 95 1007.7
20260506024540 8 0 0.0 0.0 0.00 0.18 0.00 95 1007.7
20260506024026 8 0 0.0 0.0 0.00 0.18 0.00 95 1007.8
20260506023525 8 0 0.0 0.0 0.00 0.18 0.00 95 1007.8
20260506023100 8 0 0.0 0.0 0.00 0.18 0.00 95 1007.8
20260506022524 8 0 0.0 0.0 0.00 0.18 0.00 95 1007.8
20260506022026 8 0 0.0 0.0 0.00 0.18 0.00 95 1007.7
20260506021537 8 0 0.0 0.0 0.00 0.18 0.00 95 1007.8
20260506021026 8 0 0.0 0.0 0.00 0.18 0.00 94 1008.0
20260506020525 8 0 0.0 0.0 0.00 0.18 0.00 94 1008.0
20260506020039 8 0 0.0 0.0 0.00 0.18 0.00 94 1008.1
20260506015528 8 0 0.0 0.0 0.00 0.18 0.00 94 1008.2
20260506015027 8 0 0.0 0.0 0.00 0.18 0.00 94 1008.2
20260506014537 8 0 0.0 0.0 0.00 0.18 0.00 94 1008.2
20260506014025 8 0 0.0 0.0 0.00 0.18 0.00 94 1008.3
20260506013526 8 0 0.0 0.0 0.00 0.18 0.00 94 1008.4
20260506013040 8 0 0.0 0.0 0.00 0.18 0.00 94 1008.3
20260506012525 8 0 0.0 0.0 0.00 0.18 0.00 94 1008.3
20260506012026 8 0 0.0 0.0 0.00 0.18 0.00 94 1008.4
20260506011540 8 0 0.0 0.0 0.00 0.18 0.00 94 1008.4
20260506011025 8 0 0.0 0.0 0.00 0.18 0.00 94 1008.6
20260506010525 8 0 0.0 0.0 0.00 0.18 0.00 94 1008.6
20260506010048 8 0 0.0 0.0 0.00 0.18 0.00 94 1008.6
20260506005526 8 0 0.0 0.0 0.00 0.18 0.00 94 1008.8
20260506005025 8 0 0.0 0.0 0.00 0.18 0.00 94 1008.9
20260506004559 8 0 0.0 0.0 0.00 0.18 0.00 94 1009.0
20260506004025 8 0 0.0 0.0 0.00 0.18 0.00 94 1008.9
20260506003525 8 0 0.0 0.0 0.00 0.18 0.00 94 1008.8
20260506003046 8 0 0.0 0.0 0.00 0.18 0.00 94 1008.8
20260506002526 8 0 0.0 0.0 0.00 0.18 0.00 94 1008.8
20260506002025 8 0 0.0 0.0 0.00 0.18 0.00 94 1008.8
20260506001540 8 0 0.0 0.0 0.00 0.18 0.00 94 1008.8
20260506001025 8 0 0.0 0.0 0.00 0.18 0.00 94 1008.9
20260506000525 8 0 0.0 0.0 0.00 0.18 0.00 94 1008.8
20260506000037 8 0 0.0 0.0 0.00 0.18 0.00 93 1008.9
20260505235525 8 0 0.0 0.0 0.00 0.18 0.00 94 1009.0
20260505235025 8 0 0.0 0.0 0.00 0.18 0.00 94 1009.0
20260505234556 8 0 0.0 0.0 0.00 0.18 0.00 93 1009.2
20260505234031 8 0 0.0 0.0 0.00 0.18 0.00 93 1009.2
20260505233527 8 0 0.0 0.0 0.00 0.18 0.00 93 1009.3
20260505233040 8 0 0.0 0.0 0.00 0.18 0.00 93 1009.3
20260505232527 8 0 0.0 0.0 0.00 0.18 0.00 93 1009.3
20260505232030 8 0 0.0 0.0 0.00 0.18 0.00 93 1009.5
20260505231539 8 0 0.0 0.0 0.00 0.18 0.00 93 1009.5
20260505231027 8 0 0.0 0.0 0.00 0.18 0.00 93 1009.5
20260505230528 8 0 0.0 0.0 0.00 0.18 0.00 93 1009.5
20260505230042 8 0 0.0 0.0 0.00 0.18 0.00 93 1009.4
20260505225529 8 0 0.0 0.0 0.00 0.18 0.00 93 1009.5
20260505225033 8 0 0.0 0.0 0.00 0.18 0.00 92 1009.6
20260505224540 8 0 0.0 0.0 0.00 0.18 0.00 92 1009.6
20260505224027 8 0 0.0 0.0 0.00 0.18 0.00 92 1009.5
20260505223527 8 0 0.0 0.0 0.00 0.18 0.00 92 1009.4
20260505223036 8 0 0.0 0.0 0.00 0.18 0.00 92 1009.4
20260505222527 8 0 0.0 0.0 0.00 0.18 0.00 92 1009.5
20260505222027 8 0 0.0 0.0 0.00 0.18 0.00 92 1009.5
20260505221540 8 0 0.0 0.0 0.00 0.18 0.00 92 1009.6
20260505221026 8 0 0.0 0.0 0.00 0.18 0.00 92 1009.6
20260505220526 8 0 0.0 0.0 0.00 0.18 0.00 92 1009.6
20260505220055 8 0 0.0 0.0 0.00 0.18 0.00 92 1009.6
20260505215528 8 0 0.0 0.0 0.00 0.18 0.18 91 1009.6
20260505215027 8 0 0.0 0.0 0.00 0.18 0.18 92 1009.5
20260505214540 8 0 0.0 0.0 0.00 0.18 0.18 91 1009.5
20260505214027 8 0 0.0 0.0 0.00 0.18 0.18 91 1009.5
20260505213527 8 0 0.0 0.0 0.00 0.18 0.18 91 1009.6
20260505213046 8 0 0.0 0.0 0.00 0.18 0.18 91 1009.7
20260505212527 9 0 0.0 0.0 0.00 0.18 0.18 91 1009.7
20260505212027 9 0 0.0 0.0 0.00 0.18 0.18 91 1009.8
20260505211546 9 0 0.0 0.0 0.00 0.18 0.18 91 1009.9
20260505211027 9 0 0.0 0.0 0.00 0.18 0.18 91 1009.9
20260505210526 9 0 0.0 0.0 0.00 0.18 0.18 91 1009.8
20260505210038 9 0 0.0 0.0 0.00 0.18 0.18 91 1009.7
20260505205527 9 0 0.0 0.0 0.00 0.18 0.18 91 1009.8
20260505205030 10 0 0.0 0.0 0.00 0.18 0.18 91 1009.8
20260505204538 10 0 0.0 0.0 0.00 0.18 0.18 91 1009.8
20260505204027 10 0 0.0 0.0 0.00 0.18 0.18 90 1009.8
20260505203527 10 0 0.0 0.0 0.00 0.18 0.18 90 1009.7
20260505203049 10 0 0.0 0.0 0.00 0.18 0.18 90 1009.8
20260505202527 10 0 0.0 0.0 0.00 0.18 0.18 90 1009.7
20260505202028 10 0 0.0 0.0 0.00 0.18 0.18 90 1009.8
20260505201539 10 0 0.0 0.0 0.00 0.18 0.18 90 1009.7
20260505201027 10 0 0.0 0.0 0.00 0.18 0.18 90 1009.6
20260505200530 10 0 0.0 0.0 0.00 0.18 0.18 90 1009.4
20260505200043 11 0 0.0 0.0 0.00 0.18 0.18 90 1009.5
20260505195527 11 0 0.0 0.0 0.00 0.18 0.18 90 1009.4
20260505195028 11 0 0.0 0.0 0.00 0.18 0.18 90 1009.2
20260505194543 11 0 0.0 0.0 0.00 0.18 0.18 90 1009.2
20260505194027 11 0 0.0 0.0 0.00 0.18 0.18 90 1009.1
20260505193526 11 0 0.0 0.0 0.00 0.18 0.18 90 1009.1
20260505193045 11 0 0.0 0.0 0.00 0.18 0.18 90 1009.1
20260505192526 11 0 0.0 0.0 0.00 0.18 0.18 90 1009.1
20260505192026 11 0 0.0 0.0 0.00 0.18 0.18 90 1009.1
20260505191551 12 0 0.0 0.0 0.00 0.18 0.18 90 1009.0
20260505191032 12 0 0.0 0.0 0.00 0.18 0.18 90 1008.9
20260505190526 12 0 0.0 0.0 0.00 0.18 0.18 90 1009.0
20260505190038 12 0 0.0 0.0 0.00 0.18 0.18 90 1008.9
20260505185527 12 0 0.0 0.0 0.00 0.18 0.18 90 1008.9